Regional Weather Roundup
Issued by NWS

Home | Current Version | Previous Version | Text Only | Print | Product List | Glossary Off
Versions: 1 2 3 4 5 6 7 8 9 10 11 12 13 14 15 16 17 18 19 20 21 22 23 24 25 26 27 28 29 30 31 32 33 34 35 36 37 38 39 40 41 42 43 44 45 46 47 48 49 50

602
ASUS44 KJAN 201810
RWRMS

MISSISSIPPI HOURLY WEATHER ROUNDUP
NATIONAL WEATHER SERVICE JACKSON MS
1200 PM CST THU NOV 20 2014

NOTE: "FAIR: INDICATES FEW OR NO CLOUDS BELOW 12,000 FEET WITH NO
SIGNIFICANT WEATHER AND/OR OBSTRUCTIONS TO VISIBILITY.

MSZ001>002-007>008-010>013-018>021-025>028-034>036-201900-
NORTHWEST MISSISSIPPI

CITY           SKY/WX    TMP DP  RH WIND       PRES   REMARKS
CLARKSDALE     FAIR      52  32  46 E6        30.25F
CLEVELAND      MOCLDY    52  43  72 CALM      30.24F
GREENWOOD      PTSUNNY   58  43  57 W5        30.23F
6HR MIN TEMP:  41; 6HR MAX TEMP:  58;

GREENVILLE     PTSUNNY   53  45  74 NE7       30.23F
6HR MIN TEMP:  39; 6HR MAX TEMP:  53;

GRENADA        FAIR      55  41  58 CALM      30.24F
OLIVE BRANCH   MOSUNNY   48  30  49 CALM      30.25F
OXFORD         FAIR      54  28  37 NE3       30.25F
TUNICA         CLEAR     52  34  50 NE7       30.25F
$$

MSZ003>006-009-014>017-022>024-029>033-037>039-201900-
NORTHEAST MISSISSIPPI

CITY           SKY/WX    TMP DP  RH WIND       PRES   REMARKS
COLUMBUS AFB   SUNNY     58  39  50 VRB2      30.24F
6HR MIN TEMP:  34; 6HR MAX TEMP:  58;

CORINTH        FAIR      52  27  37 NW7       30.24F
GOLDN TRIANGLE SUNNY     59  45  58 CALM      30.24F
STARKVILLE       N/A    N/A N/A N/A MISG        N/A
TUPELO         SUNNY     54  35  48 NE5       30.25F
6HR MIN TEMP:  35; 6HR MAX TEMP:  54;

$$

MSZ040-058-201900-
CENTRAL MISSISSIPPI

CITY           SKY/WX    TMP DP  RH WIND       PRES   REMARKS
JACKSON INTL   PTSUNNY   67  49  52 VRB6      30.21F
6HR MIN TEMP:  40; 6HR MAX TEMP:  67;

JACKSON HAWKNS CLOUDY    65  49  56 W10       30.22F
6HR MIN TEMP:  41; 6HR MAX TEMP:  66;

MERIDIAN KEY   MOSUNNY   64  45  49 W12       30.23F
6HR MIN TEMP:  36; 6HR MAX TEMP:  64;

MERIDIAN NAS   PTSUNNY   64  46  52 VRB7      30.24F
6HR MIN TEMP:  42; 6HR MAX TEMP:  64;

RAYMOND        FAIR      66  61  82 W8        30.21F
VICKSBURG      CLOUDY    62  50  64 W3        30.22F
6HR MIN TEMP:  38; 6HR MAX TEMP:  63;

$$

MSZ059>079-201900-
SOUTH MISSISSIPPI

CITY           SKY/WX    TMP DP  RH WIND       PRES   REMARKS
BROOKHAVEN     MOCLDY    66  48  52 S5        30.24F
HATTIESBURG    PTSUNNY   68  46  45 VRB5      30.25F
6HR MIN TEMP:  33; 6HR MAX TEMP:  68;

MCCOMB         PTSUNNY   67  46  47 SW8       30.23F
6HR MIN TEMP:  37; 6HR MAX TEMP:  69;

NATCHEZ        MOSUNNY   66  50  55 SW9       30.22F
6HR MIN TEMP:  43; 6HR MAX TEMP:  68;

PINE BELT      MOSUNNY   64  45  48 W7        30.25F
6HR MIN TEMP:  34; 6HR MAX TEMP:  66;

$$

MSZ080>082-201900-
COASTAL MISSISSIPPI

CITY           SKY/WX    TMP DP  RH WIND       PRES   REMARKS
BAY ST LOUIS   MOSUNNY   68  41  37 SW6       30.26F
BILOXI         MOSUNNY   65  47  53 SW9       30.27F
6HR MIN TEMP:  37; 6HR MAX TEMP:  65;

PASCAGOULA     SUNNY     66  44  45 S10       30.27F
6HR MIN TEMP:  29; 6HR MAX TEMP:  67;

GULFPORT       SUNNY     63  43  48 S9        30.27F
6HR MIN TEMP:  35; 6HR MAX TEMP:  64;

$$



USA.gov is the U.S. government's official web portal to all federal, state and local government web resources and services.